Akron, CO

3:47 AM MDT on July 24, 2017 (GMT -0600)
Akron-Washington County

Weather History for KAKO - March, 2014

Change the Weather History Date:

Sunday, March 16, 2014

  Actual Average Record
Temperature  
Mean Temperature 42 °F 39 °F  
Max Temperature 58 °F 53 °F 82 °F (2015)
Min Temperature 25 °F 26 °F 2 °F (1943)
Degree Days  
Heating Degree Days 23    
Month to date heating degree days 432  
Cooling Degree Days 0    
Month to date cooling degree days 0  
Moisture  
Dew Point 25 °F    
Average Humidity 62    
Maximum Humidity 100    
Minimum Humidity 24    
Precipitation  
Precipitation 0.00 in 0.03 in 0.21 in (1946)
Month to date precipitation 0.19 0.38  
Year to date precipitation 0.62 1.12  
Sea Level Pressure  
Sea Level Pressure 30.20 in    
Wind  
Wind Speed 7 mph (WNW)    
Max Wind Speed 18 mph    
Max Gust Speed 24 mph    
Visibility 10 miles    
Events      
T = Trace of Precipitation, MM = Missing Value Source: NWS Daily Summary

Daily Weather History Graph

Daily Weather History Graph

Search for Another Location

Airport or City:

Trip Planner

Search our weather history database for the weather conditions in past years. The results will help you decide how hot, cold, wet, or windy it might be!

Date:

Astronomy

Mar. 16, 2014 Rise Set
Actual Time 7:02 AM MDT 7:00 PM MDT
Civil Twilight 6:35 AM MDT 7:27 PM MDT
Nautical Twilight 6:04 AM MDT 7:59 PM MDT
Astronomical Twilight 5:32 AM MDT 8:31 PM MDT
Moon 7:20 PM MDT (3/16) 6:47 AM MDT (3/16)
Length of Visible Light 12h 52m
Length of Day
11h 58m
Full, 100% of the Moon is Illuminated
Mar 16
Full
Mar 23
Last Quarter
Mar 30
New
Apr 7
First Quarter
Apr 15
Full

Hourly Weather History & Observations

Time (MDT) Temp. Windchill Dew Point Humidity Pressure Visibility Wind Dir Wind Speed Gust Speed Precip Events Conditions
12:07 AM 28.9 °F 21.1 °F 25.0 °F 85% 30.29 in 10.0 mi NNW 8.1 mph - N/A   Mostly Cloudy
12:46 AM 28.0 °F 19.3 °F 26.1 °F 92% 30.29 in 10.0 mi North 9.2 mph - N/A   Scattered Clouds
12:53 AM 28.0 °F 20.0 °F 26.1 °F 92% 30.36 in 10.0 mi NNW 8.1 mph - N/A   Partly Cloudy
1:26 AM 28.9 °F 21.1 °F 26.1 °F 89% 30.29 in 10.0 mi NNW 8.1 mph - N/A   Mostly Cloudy
1:53 AM 28.9 °F 21.1 °F 27.0 °F 92% 30.38 in 10.0 mi North 8.1 mph - N/A   Overcast
2:53 AM 27.0 °F 19.5 °F 26.1 °F 96% 30.37 in 10.0 mi NNW 6.9 mph - N/A   Mostly Cloudy
3:09 AM 26.1 °F 20.5 °F 25.0 °F 96% 30.28 in 10.0 mi North 4.6 mph - N/A   Partly Cloudy
3:53 AM 27.0 °F 21.6 °F 25.0 °F 92% 30.34 in 10.0 mi NNE 4.6 mph - N/A   Mostly Cloudy
4:53 AM 28.9 °F 25.2 °F 27.0 °F 92% 30.34 in 10.0 mi NNW 3.5 mph - N/A   Overcast
5:53 AM 28.0 °F 21.7 °F 27.0 °F 96% 30.33 in 8.0 mi West 5.8 mph - N/A   Overcast
6:13 AM 28.0 °F 21.7 °F 27.0 °F 96% 30.25 in 10.0 mi WSW 5.8 mph - N/A   Overcast
6:41 AM 28.0 °F 22.8 °F 27.0 °F 96% 30.25 in 10.0 mi West 4.6 mph - N/A   Overcast
6:53 AM 28.0 °F 21.7 °F 26.1 °F 92% 30.33 in 10.0 mi West 5.8 mph - N/A   Overcast
7:53 AM 28.9 °F 22.8 °F 27.0 °F 92% 30.35 in 10.0 mi West 5.8 mph - N/A   Overcast
8:11 AM 28.9 °F 21.9 °F 27.0 °F 92% 30.28 in 10.0 mi West 6.9 mph - N/A   Overcast
8:46 AM 30.0 °F 26.5 °F 27.0 °F 88% 30.27 in 10.0 mi WNW 3.5 mph - N/A   Scattered Clouds
8:53 AM 30.9 °F 27.5 °F 27.0 °F 85% 30.34 in 10.0 mi WNW 3.5 mph - N/A   Partly Cloudy
9:53 AM 34.0 °F 27.2 °F 28.0 °F 79% 30.32 in 10.0 mi WSW 8.1 mph - N/A   Clear
10:53 AM 39.0 °F 32.3 °F 28.9 °F 67% 30.28 in 10.0 mi West 10.4 mph - N/A   Clear
11:53 AM 43.0 °F 38.8 °F 27.0 °F 53% 30.26 in 10.0 mi West 6.9 mph - N/A   Clear
12:53 PM 46.0 °F 40.6 °F 24.1 °F 42% 30.20 in 10.0 mi WNW 11.5 mph - N/A   Clear
1:53 PM 50.0 °F - 24.1 °F 36% 30.13 in 10.0 mi Variable 6.9 mph 16.1 mph N/A   Clear
2:53 PM 53.1 °F - 25.0 °F 34% 30.09 in 10.0 mi WNW 8.1 mph - N/A   Clear
3:53 PM 57.0 °F - 21.9 °F 26% 30.04 in 10.0 mi NNW 11.5 mph - N/A   Clear
4:53 PM 57.9 °F - 21.9 °F 25% 30.00 in 10.0 mi North 10.4 mph - N/A   Clear
5:53 PM 57.0 °F - 21.0 °F 25% 30.00 in 10.0 mi NNW 5.8 mph - N/A   Clear
6:53 PM 53.1 °F - 21.9 °F 30% 29.99 in 10.0 mi Calm Calm - N/A   Clear
7:53 PM 45.0 °F 41.8 °F 24.1 °F 44% 30.01 in 10.0 mi SW 5.8 mph - N/A   Clear
8:53 PM 46.9 °F - 23.0 °F 39% 30.01 in 10.0 mi NW 9.2 mph - N/A   Clear
9:53 PM 41.0 °F 37.1 °F 25.0 °F 53% 30.00 in 10.0 mi SSW 5.8 mph - N/A   Clear
10:53 PM 44.1 °F 37.4 °F 25.0 °F 47% 29.95 in 10.0 mi SW 13.8 mph - N/A   Clear
11:53 PM 44.1 °F 37.1 °F 24.1 °F 45% 29.90 in 10.0 mi SW 15.0 mph - N/A   Clear